User: anonymous   Login
Location: Unspecified
(0.0000°N, 0.0000°E)
Time: 06:05:38
(UTC+00:00)
Language:

COSMOS 2452 - Orbit

View from above orbital plane
View from above orbital plane
View from above satellite
View from above satellite

Ground track
Ground track

The orbit data is extracted from the following two-line orbital elements,

1 35499U 09036B   18232.44371174  .00000003  00000-0 -48915-4 0  9990
2 35499  82.4872  59.2572 0015312 253.1796 106.7607 12.42911514413878
Epoch (UTC): 20 August 2018 10:38:56
Eccentricity: 0.0015312
inclination: 82.4872°
perigee height: 1482 km
apogee height: 1506 km
right ascension of ascending node: 59.2572°
argument of perigee: 253.1796°
revolutions per day: 12.42911514
mean anomaly at epoch: 106.7607°
orbit number at epoch: 41387

The dashed part of the orbit path shows where the satellite is in the earth's shadow,  

DLR